Home > Weather > Helmstedt > Past weeks

Flag for Germany Weather for the Past 2 Weeks in Helmstedt, Lower Saxony, Germany

Now
30 °F

Passing clouds.


Feels Like: 25 °F
Forecast: 33 / 39 °F
Wind: 5 mph from Northeast

Location: Celle Airport

Current Time: Feb 13, 2016 at 6:35:31 AM

Latest Report: Feb 13, 2016 at 5:20 AM


Visibility: N/A

Pressure: 29.45 "Hg

Humidity: 100%

Dew point: 30 °F

Location of HelmstedtLocation

Historic Weather in Helmstedt — Graph

°F

Helmstedt Temperature Yesterday

Maximum temperature yesterday: 41 °F (at 12:20 PM)
Minimum temperature yesterday: 30 °F (at 5:20 AM)
Average temperature yesterday: 36 °F

High & Low Weather Summary for the Past Weeks

 TemperatureHumidityPressure
High55 °F (Feb 7, 1:20 PM)100% (Jan 31, 11:20 PM)30.24 "Hg (Jan 31, 11:20 PM)
Low30 °F (Feb 12, 5:20 AM)55% (Feb 7, 1:20 PM)28.80 "Hg (Feb 9, 8:20 PM)
Average43 °F81%29.69 "Hg
* Reported Jan 29 4:20 AM — Feb 13 4:20 AM, Helmstedt, Weather by CustomWeather, © 2016

Note: Actual official high and low records may vary slightly from our data, if they occured in-between our weather recording intervals... More about our weather records

Advertising

Helmstedt Weather History for the Previous 24 Hours

 ConditionsComfort  
Time TempWeatherWind HumidityBarometerVisibility
4:20 AM
Sat, Feb 13
32 °FPassing clouds.5 mph93%29.45 "HgN/A
3:20 AM32 °FPassing clouds.2 mph93%29.47 "HgN/A
2:20 AM32 °FPassing clouds.3 mph100%29.47 "HgN/A
1:20 AM34 °FPassing clouds.2 mph93%29.47 "HgN/A
12:20 AM34 °FPassing clouds.2 mph93%29.47 "HgN/A
11:20 PM
Fri, Feb 12
36 °FPassing clouds.2 mph87%29.50 "HgN/A
10:20 PM36 °FPassing clouds.3 mph87%29.50 "HgN/A
9:20 PM36 °FPassing clouds.3 mph87%29.50 "HgN/A
8:20 PM37 °FPassing clouds.6 mph81%29.50 "HgN/A
7:20 PM37 °FPassing clouds.5 mph81%29.50 "HgN/A
6:20 PM36 °FPassing clouds.No wind87%29.50 "HgN/A
5:20 PM37 °FScattered clouds.1 mph87%29.53 "HgN/A
4:20 PM39 °FScattered clouds.3 mph81%29.53 "HgN/A
3:20 PM41 °FScattered clouds.5 mph70%29.53 "HgN/A
2:20 PM41 °FScattered clouds.1 mph76%29.53 "HgN/A
1:20 PM39 °FScattered clouds.No wind81%29.56 "HgN/A
12:20 PM41 °FScattered clouds.2 mph76%29.59 "HgN/A
11:20 AM37 °FBroken clouds.No wind93%29.59 "HgN/A
10:20 AM37 °FScattered clouds.6 mph87%29.62 "Hg4 mi
9:20 AM32 °FIce fog.1 mph100%29.62 "Hg2 mi
8:20 AM30 °FIce fog.2 mph100%29.62 "Hg2 mi
7:20 AM32 °FIce fog.3 mph93%29.62 "Hg2 mi
6:20 AM32 °FIce fog.3 mph100%29.62 "Hg2 mi
Weather by CustomWeather, © 2016

See weather overviewHow to use our weather pages